Date String (YYYY-MM-DD hh:mm:ss) UTC,Instrument flags,Ambient pressure (hPa),Sample flow (lpm),Bypass flow (lpm),Sample temperature (°C),Ambient temperature (°C),ASC tube jacket temperature (°C),LED temperature (°C),Box temperature (°C),Sample RH (%),Span deviation,Mass concentration (μg/m³),Mass concentration (μg/m³),Mass concentration (μg/m³)
DateTimeUTC,F1_M11,P_M11,Q1_M11,Q2_M11,T1_M11,T2_M11,T3_M11,T4_M11,T5_M11,U1_M11,ZSPAN_M11,X0_M11,X2_M11,X1_M11
2021-08-26 18:00:00,,0830.9,5.01,0.00,29.4,27.9,00.0,38.3,31.2,34.2,0001.2,0023.62,0010.61,0008.91
2021-08-26 18:01:00,,0830.9,4.99,0.00,29.5,28.2,00.0,38.3,31.3,34.2,0001.3,0024.71,0010.68,0008.93
2021-08-26 18:02:00,,0830.9,5.01,0.00,29.5,28.4,00.0,38.4,31.3,33.9,0001.5,0024.56,0010.71,0008.91
2021-08-26 18:03:00,,0830.9,5.00,0.00,29.6,28.4,00.0,38.4,31.3,33.6,0001.4,0023.32,0010.59,0008.87
2021-08-26 18:04:00,,0830.9,5.01,0.00,29.5,27.1,00.0,38.4,31.0,32.9,0001.2,0023.30,0010.55,0008.83
2021-08-26 18:05:00,,0830.8,4.99,0.00,29.4,26.1,00.0,38.4,30.7,33.4,0001.0,0023.95,0010.58,0008.81
2021-08-26 18:06:00,,0830.8,5.00,0.00,29.3,26.1,00.0,38.4,30.7,34.0,0001.0,0023.95,0010.64,0008.79
2021-08-26 18:07:00,,0830.7,4.99,0.00,29.3,26.5,00.0,38.4,30.8,33.6,0001.0,0023.01,0010.70,0008.78
2021-08-26 18:08:00,,0830.7,5.00,0.00,29.3,27.0,00.0,38.3,30.9,33.6,0000.9,0023.70,0010.71,0008.78
2021-08-26 18:09:00,,0830.7,5.01,0.00,29.3,27.4,00.0,38.3,31.0,33.7,0000.8,0024.75,0010.72,0008.77
2021-08-26 18:10:00,,0830.7,5.00,0.00,29.3,27.8,00.0,38.3,31.1,33.5,0000.8,0025.24,0010.78,0008.77
2021-08-26 18:11:00,,0830.8,5.00,0.00,29.4,28.1,00.0,38.4,31.2,33.4,0000.7,0025.25,0010.79,0008.74
2021-08-26 18:12:00,,0830.8,4.98,0.00,29.4,28.3,00.0,38.4,31.3,33.2,0000.6,0025.00,0010.75,0008.70
2021-08-26 18:13:00,,0830.8,5.01,0.00,29.5,27.8,00.0,38.4,31.1,33.0,0000.4,0025.76,0010.72,0008.71
2021-08-26 18:14:00,,0830.8,5.00,0.00,29.4,26.3,00.0,38.4,30.7,33.9,0000.5,0025.63,0010.74,0008.71
2021-08-26 18:15:00,,0830.7,5.00,0.00,29.2,25.9,00.0,38.4,30.5,33.9,0000.7,0026.04,0010.77,0008.71
2021-08-26 18:16:00,,0830.7,5.00,0.00,29.2,26.1,00.0,38.3,30.6,34.1,0000.5,0025.92,0010.70,0008.70
2021-08-26 18:17:00,,0830.8,5.01,0.00,29.1,26.6,00.0,38.3,30.7,33.7,0000.5,0027.01,0010.66,0008.71
2021-08-26 18:18:00,,0830.8,4.99,0.00,29.1,27.0,00.0,38.3,30.8,33.5,0000.6,0027.07,0010.62,0008.71
2021-08-26 18:19:00,,0830.8,5.00,0.00,29.2,27.5,00.0,38.3,30.9,33.7,0000.5,0027.11,0010.62,0008.72
2021-08-26 18:20:00,,0830.8,5.01,0.00,29.2,27.8,00.0,38.3,31.0,34.0,0000.4,0025.92,0010.55,0008.70
2021-08-26 18:21:00,,0830.7,5.00,0.00,29.3,28.1,00.0,38.3,31.1,33.5,0000.3,0025.50,0010.54,0008.68
2021-08-26 18:22:00,,0830.7,4.99,0.00,29.4,28.2,00.0,38.3,31.2,33.5,0000.2,0024.45,0010.49,0008.67
2021-08-26 18:23:00,,0830.7,5.01,0.00,29.3,27.2,00.0,38.3,30.9,33.6,0000.2,0024.07,0010.42,0008.64
2021-08-26 18:24:00,,0830.7,5.01,0.00,29.2,26.0,00.0,38.3,30.6,33.7,0000.4,0024.34,0010.43,0008.60
2021-08-26 18:25:00,,0830.7,5.00,0.00,29.1,26.0,00.0,38.3,30.5,33.5,0000.5,0025.14,0010.46,0008.57
2021-08-26 18:26:00,,0830.7,5.00,0.00,29.1,26.4,00.0,38.2,30.6,33.9,0000.6,0026.30,0010.53,0008.56
2021-08-26 18:27:00,,0830.7,5.00,0.00,29.1,26.8,00.0,38.2,30.7,33.9,0001.0,0025.97,0010.59,0008.54
2021-08-26 18:28:00,,0830.7,5.00,0.00,29.1,27.3,00.0,38.2,30.9,34.3,0000.9,0024.53,0010.62,0008.52
2021-08-26 18:29:00,,0830.7,5.00,0.00,29.2,27.7,00.0,38.2,31.0,33.6,0000.7,0023.15,0010.57,0008.51
2021-08-26 18:30:00,,0830.7,5.01,0.00,29.2,28.0,00.0,38.2,31.1,33.7,0000.8,0022.11,0010.61,0008.52
2021-08-26 18:31:00,,0830.7,5.02,0.00,29.3,28.2,00.0,38.2,31.1,32.8,0000.9,0022.25,0010.66,0008.53
2021-08-26 18:32:00,,0830.7,4.99,0.00,29.3,27.2,00.0,38.2,30.9,33.1,0000.9,0023.54,0010.61,0008.51
2021-08-26 18:33:00,,0830.7,5.01,0.00,29.1,26.0,00.0,38.2,30.5,33.3,0001.0,0024.08,0010.59,0008.50
2021-08-26 18:34:00,,0830.6,5.00,0.00,29.0,25.9,00.0,38.2,30.5,33.3,0001.1,0024.54,0010.65,0008.52
2021-08-26 18:35:00,,0830.6,5.00,0.00,29.0,26.3,00.0,38.2,30.6,33.5,0001.0,0024.14,0010.61,0008.54
2021-08-26 18:36:00,,0830.6,4.98,0.00,29.0,26.7,00.0,38.1,30.7,34.2,0000.8,0023.48,0010.53,0008.55
2021-08-26 18:37:00,,0830.7,5.01,0.00,29.0,27.1,00.0,38.1,30.8,33.4,0000.8,0022.27,0010.46,0008.56
2021-08-26 18:38:00,,0830.8,4.99,0.00,29.1,27.5,00.0,38.1,30.9,33.8,0000.8,0022.62,0010.40,0008.55
2021-08-26 18:39:00,,0830.8,5.00,0.00,29.1,27.9,00.0,38.1,31.0,33.6,0001.0,0023.41,0010.28,0008.52
2021-08-26 18:40:00,,0830.7,5.00,0.00,29.2,28.1,00.0,38.1,31.1,32.8,0001.3,0025.21,0010.26,0008.49
2021-08-26 18:41:00,,0830.8,5.00,0.00,29.3,28.3,00.0,38.2,31.2,32.9,0001.3,0027.00,0010.22,0008.47
2021-08-26 18:42:00,,0830.7,4.99,0.00,29.3,27.5,00.0,38.2,31.0,32.7,0001.3,0027.71,0010.18,0008.45
2021-08-26 18:43:00,,0830.7,5.00,0.00,29.1,26.2,00.0,38.2,30.6,32.4,0001.4,0026.56,0010.16,0008.46
2021-08-26 18:44:00,,0830.7,5.00,0.00,29.1,26.0,00.0,38.2,30.5,32.6,0001.6,0026.12,0010.15,0008.44
2021-08-26 18:45:00,,0830.6,5.00,0.00,29.0,26.3,00.0,38.1,30.6,32.3,0001.7,0025.47,0010.11,0008.42
2021-08-26 18:46:00,,0830.6,5.01,0.00,29.0,26.8,00.0,38.1,30.7,33.0,0001.6,0025.00,0010.11,0008.40
2021-08-26 18:47:00,,0830.6,5.00,0.00,29.0,27.2,00.0,38.1,30.8,32.9,0001.8,0024.68,0010.03,0008.35
2021-08-26 18:48:00,,0830.6,5.00,0.00,29.1,27.6,00.0,38.1,30.9,32.5,0001.7,0024.41,0009.98,0008.32
2021-08-26 18:49:00,,0830.6,5.00,0.00,29.2,28.0,00.0,38.1,31.0,32.6,0001.5,0024.02,0009.96,0008.31
2021-08-26 18:50:00,,0830.6,5.00,0.00,29.2,28.2,00.0,38.1,31.1,32.3,0001.4,0023.18,0010.02,0008.32
2021-08-26 18:51:00,,0830.6,5.00,0.00,29.2,27.6,00.0,38.2,30.9,32.4,0001.2,0022.35,0010.08,0008.33
2021-08-26 18:52:00,,0830.5,5.00,0.00,29.1,26.2,00.0,38.1,30.6,32.5,0001.4,0021.20,0010.01,0008.29
2021-08-26 18:53:00,,0830.6,5.02,0.00,29.0,25.9,00.0,38.1,30.5,32.3,0001.7,0021.00,0009.96,0008.26
2021-08-26 18:54:00,,0830.5,4.99,0.00,29.0,26.3,00.0,38.1,30.6,32.6,0001.6,0020.75,0009.93,0008.23
2021-08-26 18:55:00,,0830.5,5.00,0.00,29.0,26.7,00.0,38.1,30.7,31.7,0001.4,0020.46,0009.89,0008.22
2021-08-26 18:56:00,,0830.4,5.00,0.00,29.0,27.2,00.0,38.1,30.8,32.6,0001.3,0020.00,0009.80,0008.20
2021-08-26 18:57:00,,0830.5,5.00,0.00,29.1,27.6,00.0,38.1,30.9,31.9,0001.6,0020.10,0009.71,0008.17
2021-08-26 18:58:00,,0830.4,5.00,0.00,29.1,27.9,00.0,38.1,31.0,31.5,0001.7,0020.74,0009.76,0008.18
2021-08-26 18:59:00,,0830.4,5.00,0.00,29.2,28.2,00.0,38.1,31.1,31.5,0001.7,0020.86,0009.77,0008.15
